Location: Kapla
(46.2483°N, 15.0094°E)
Time: 07:26:54
(UTC+00:00)

ASTEX 1 - Pass Details

Date: 03 March 2021
Orbit: 720 x 743 km, 92.7° (Epoch: 18 April)

Event Time Altitude Azimuth Distance (km) Brightness Sun altitude
Rises 19:20:22 0° 1° (N) 3,150 6.9 -26.6°
Reaches altitude 10° 19:22:41 10° 358° (N) 2,223 6.1 -27.0°
Maximum altitude 19:27:29 57° 281° (W) 849 3.9 -27.7°
Enters shadow 19:30:13 25° 211° (SSW) 1,443 5.0 -28.2°
